Temperature
21 21 21 20 20 20 19 19 18 18 18 17 17 16 16 16 15 15 15 15 15 14 14 14 14 14 14 14 14 14 14 15 15 15 15 15 15 15 15 15 15 15 15
21 21 21 20 20 20 19 19 19 18 18 17 17 16 16 16 15 15 15 15 15 14 14 14 14 14 14 14 14 14 14 14 14 15 15 15 15 15 15 15 15 15 15
21 21 21 20 20 20 19 19 19 18 18 17 17 16 16 16 15 15 15 15 15 14 14 14 14 14 14 14 14 14 14 14 14 14 14 14 14 14 14 14 15 15 15
20 20 21 20 20 20 19 19 19 18 18 17 17 17 16 16 15 15 15 15 15 14 14 14 14 14 14 14 14 14 14 14 14 14 14 14 14 14 14 14 14 14 15
20 20 20 20 20 20 19 19 18 18 18 17 17 17 16 16 16 15 15 15 15 15 14 14 14 14 14 14 14 14 14 14 14 14 14 14 14 14 14 14 14 14 14
20 20 20 20 20 19 19 19 18 18 18 17 17 17 16 16 16 15 15 15 15 15 15 14 14 14 14 14 14 14 14 14 14 14 14 14 14 13 14 13 14 14 14
20 20 20 20 19 19 19 19 18 18 17 17 17 17 16 16 16 15 15 15 15 15 15 15 14 14 14 14 14 14 14 14 14 14 14 13 13 13 13 13 13 14 14
19 20 20 19 19 19 19 18 18 18 17 17 17 16 16 16 16 15 15 15 15 15 15 15 14 14 14 14 14 14 14 14 14 14 13 13 13 13 13 13 13 13 14
19 19 19 19 19 19 18 18 18 18 17 17 17 16 16 16 16 15 15 15 15 15 15 14 14 14 14 14 14 14 14 14 14 14 14 14 13 13 13 13 13 13 13
19 19 19 19 18 18 18 18 18 17 17 17 16 16 16 16 16 15 15 15 15 15 14 14 14 14 14 14 14 14 14 14 14 13 13 13 13 13 13 13 13 13 13
19 19 18 18 18 18 18 18 17 17 17 16 16 16 16 16 15 15 15 15 15 14 14 14 14 14 14 14 14 14 13 13 13 13 13 13 13 13 13 13 13 13 13
19 18 18 18 18 18 17 17 17 17 16 16 16 16 16 15 15 15 15 14 14 14 14 14 14 14 14 13 13 13 13 13 13 13 13 13 13 13 13 13 13 13 13
18 18 18 18 17 17 17 17 17 17 16 16 16 16 15 15 15 15 14 14 14 14 14 14 13 13 13 13 13 13 13 13 13 13 13 13 13 13 13 13 13 12 12
18 18 18 17 17 17 17 17 17 16 16 16 16 15 15 15 14 14 14 14 14 14 13 13 13 13 13 13 13 13 13 13 13 12 12 12 12 12 12 12 12 12 12
18 18 18 17 17 17 17 17 16 16 16 16 15 15 15 14 14 14 14 13 13 13 13 13 13 13 13 12 12 12 12 12 12 12 12 12 12 12 12 12 12 12 12
18 18 18 17 17 17 17 17 16 16 16 15 15 15 14 14 14 14 13 13 13 13 13 13 12 12 12 12 12 12 12 12 12 12 12 12 12 12 11 11 11 11 11
18 18 18 18 18 17 17 17 16 16 15 15 15 14 14 14 13 13 13 13 12 12 12 12 12 12 12 12 11 11 11 11 11 11 11 11 11 11 11 11 11 11 11
18 18 18 18 18 17 17 16 16 16 15 15 14 14 14 13 13 13 13 12 12 12 12 12 11 11 11 11 11 11 11 11 11 11 10 10 10 10 10 10 10 11 11
20 19 18 18 18 17 17 16 16 15 15 14 14 14 13 13 13 13 12 12 12 12 11 11 11 11 11 10 10 10 10 10 10 10 10 10 10 10 10 10 10 10 10
19 19 18 17 17 17 16 16 15 15 15 14 14 13 13 13 12 12 12 11 11 11 11 11 10 10 10 10 10 9 10 10 10 10 10 10 9 9 9 9 9 9 9
19 18 18 17 17 17 16 15 15 15 14 14 13 13 12 12 12 11 11 11 11 11 11 10 10 10 10 9 9 9 9 9 9 9 9 9 9 9 8 8 8 8 8
18 18 18 17 17 16 16 15 15 15 14 13 13 12 12 12 11 11 11 10 10 10 10 10 10 10 9 9 9 9 8 8 8 8 8 8 8 8 8 8 8 8 8
18 18 17 17 16 16 15 15 15 14 13 13 12 12 12 11 11 11 10 10 10 10 10 9 9 9 9 9 8 8 8 8 8 8 8 8 8 7 7 8 8 8 8
18 17 17 16 16 15 15 15 14 14 13 13 12 12 11 11 11 10 10 10 10 9 9 9 9 9 8 8 8 8 8 7 7 7 7 7 7 7 7 7 7 7 7
18 17 17 16 16 15 15 14 14 13 13 12 12 11 11 11 10 10 10 10 9 9 9 8 8 8 8 8 7 7 7 7 7 7 7 7 7 7 7 7 7 7 6
17 17 16 16 16 15 14 14 13 13 12 12 11 11 11 11 10 10 10 9 9 9 8 8 8 8 7 7 7 7 7 6 6 6 6 6 6 6 6 6 6 6 6
Wind_Speed
1 2 4 6 7 6 6 6 6 5 4 3 3 3 2 2 2 3 5 5 5 6 5 4 4 5 4 4 5 3 5 5 4 3 4 4 4 5 6 5 5 6 7
2 3 4 4 6 6 6 6 6 5 4 3 2 2 2 1 1 2 5 6 6 6 4 4 3 4 4 6 6 4 3 4 5 3 3 4 5 5 5 5 6 6 6
4 3 4 4 5 5 6 6 5 5 4 4 4 3 3 3 3 4 4 5 6 6 5 4 3 4 3 4 4 4 4 3 4 4 3 3 2 3 4 5 5 6 5
3 4 4 4 4 5 5 6 6 5 4 4 4 4 3 2 1 2 2 4 6 6 6 5 4 3 3 4 4 4 3 3 3 3 3 2 1 1 3 4 4 5 5
5 5 4 4 4 5 6 6 6 5 4 4 5 5 4 2 1 2 3 4 4 6 6 5 4 3 3 3 4 4 4 3 2 2 2 3 3 2 2 3 5 4 4
4 4 4 5 5 5 6 6 7 5 4 5 4 5 4 3 3 3 3 3 3 4 5 4 4 3 3 3 3 3 3 3 2 2 2 2 2 1 1 1 3 4 4
5 5 5 5 5 6 6 6 7 5 4 4 4 3 3 3 2 1 1 2 3 3 4 3 3 3 3 3 3 3 3 3 3 2 1 1 0 0 1 1 1 2 3
4 5 5 5 6 6 6 6 7 5 4 4 3 3 3 2 1 1 1 1 1 2 3 3 3 3 3 3 3 3 3 3 3 3 2 1 1 0 0 1 0 2 3
5 5 5 5 6 6 6 6 7 5 5 4 4 4 3 3 2 2 2 1 2 2 3 3 3 3 3 3 3 3 3 3 3 3 3 2 2 1 0 0 1 1 2
6 5 5 5 5 5 5 6 6 6 4 4 4 3 2 2 2 3 3 2 3 3 3 3 3 3 3 3 3 3 3 4 4 3 3 3 2 2 1 0 0 1 1
8 6 5 5 5 5 6 6 6 6 5 4 4 4 3 3 3 3 2 2 2 3 3 3 3 4 4 3 3 3 3 4 4 4 3 4 3 3 3 2 1 0 1
7 6 6 6 6 6 5 6 5 5 4 4 4 4 3 4 4 3 3 3 3 3 3 3 4 4 4 4 3 4 4 3 4 4 4 4 3 3 3 2 2 1 1
7 6 6 6 6 6 5 5 5 5 4 5 5 5 4 4 3 3 3 3 3 4 4 4 4 3 3 3 3 3 3 3 3 3 3 4 4 4 3 3 3 2 2
9 8 7 6 6 6 6 6 4 4 5 5 5 4 3 2 2 2 3 3 3 4 4 4 3 3 3 3 3 3 3 3 4 4 3 3 3 3 3 3 3 3 2
10 10 9 7 7 6 6 5 5 4 5 6 5 3 2 3 3 3 3 3 4 4 3 4 4 4 3 3 3 3 3 3 4 5 4 4 5 5 4 3 3 2 2
12 11 10 9 9 8 7 7 6 5 5 6 5 3 3 4 3 3 3 4 4 4 4 4 4 4 4 6 6 4 2 2 3 5 5 6 5 8 8 8 6 4 3
13 13 12 11 10 9 9 9 7 6 6 6 4 4 4 3 3 3 4 4 3 3 4 4 4 4 5 8 8 7 3 2 3 4 5 6 7 8 5 8 9 7 8
14 13 11 10 9 8 8 8 7 7 6 5 4 4 4 3 2 3 3 2 2 2 2 3 3 3 5 9 8 8 4 3 4 4 4 5 6 7 7 6 7 7 7
12 11 11 10 10 10 10 9 8 7 6 5 5 4 4 4 3 2 1 1 1 2 2 2 3 3 6 9 9 8 3 3 5 5 5 5 6 11 11 6 7 9 9
10 11 10 9 10 10 10 11 9 7 7 6 5 4 4 4 3 2 1 0 0 0 2 2 3 3 5 8 9 8 2 3 5 5 6 8 10 12 12 6 6 8 10
11 12 12 11 11 11 11 10 9 8 7 6 5 4 4 4 3 2 1 1 0 1 2 3 4 4 5 7 9 8 3 3 4 5 5 6 12 14 14 11 7 11 12
11 12 12 10 9 10 11 10 9 7 6 6 5 4 3 3 3 2 1 1 1 1 2 2 4 4 5 5 7 9 8 7 4 5 5 7 13 14 15 11 12 15 13
12 11 12 11 9 9 11 11 9 7 7 6 5 4 3 2 2 3 2 1 0 0 1 2 3 4 4 5 9 9 10 10 5 5 10 12 14 13 10 12 15 12 6
12 11 12 12 10 9 9 9 8 8 8 7 5 4 3 2 2 2 2 2 2 2 2 3 3 4 4 5 5 5 6 7 7 6 9 12 12 8 9 10 9 6 6
10 11 13 13 12 10 9 8 8 9 8 7 5 4 4 3 3 2 3 4 4 5 4 4 4 4 5 7 8 6 5 5 6 7 5 5 5 6 6 6 6 6 6
10 10 10 10 10 10 9 8 8 9 9 6 5 4 4 3 3 2 3 5 6 7 8 7 7 6 8 11 11 12 11 11 11 7 5 6 6 7 7 7 8 6 6
Wind_Direction
242 127 134 136 130 129 129 130 119 116 110 98 95 88 63 23 12 11 18 24 27 31 40 34 20 19 24 13 9 13 18 14 1 27 13 7 19 35 27 17 21 20 18
107 106 118 125 135 141 139 133 130 127 121 112 113 112 110 65 3 353 10 19 19 19 26 34 18 13 18 17 17 22 18 15 21 40 45 12 357 2 13 16 23 15 15
161 144 126 128 132 141 148 143 133 127 122 110 94 74 55 35 17 8 0 360 9 18 25 28 26 18 25 18 14 21 36 21 15 39 74 74 0 328 343 7 18 13 15
158 152 143 137 143 151 142 133 128 121 113 111 106 103 92 67 343 329 340 351 11 17 20 23 27 25 23 20 12 31 33 45 22 13 36 80 140 49 346 343 357 6 12
166 162 157 144 132 133 132 128 120 111 106 105 109 103 93 86 12 7 11 7 4 13 17 22 26 20 15 15 19 26 36 44 48 29 18 38 45 56 81 345 335 346 348
147 140 123 112 106 110 120 125 120 110 106 104 102 107 107 92 61 32 17 3 356 357 8 17 22 19 15 8 10 22 31 34 46 46 45 51 40 12 59 5 329 329 322
143 136 124 126 125 124 126 130 127 120 113 107 102 107 110 103 90 55 22 9 1 354 348 3 7 9 7 11 18 28 22 20 27 26 27 40 26 219 148 122 320 330 316
147 142 142 142 140 134 131 133 133 129 121 116 111 99 100 100 87 68 56 1 324 315 327 358 7 6 10 19 25 25 12 20 17 11 8 2 343 335 190 171 89 352 336
156 147 141 139 141 140 142 143 137 128 124 121 110 97 92 93 84 57 45 9 335 338 355 7 11 8 13 17 26 23 12 14 13 4 2 359 342 357 328 215 174 142 339
154 148 147 145 144 141 131 124 125 125 122 121 117 108 96 87 80 68 41 15 359 360 6 12 13 11 13 17 26 15 9 21 7 5 9 360 344 352 359 2 210 182 196
166 160 151 141 132 122 121 119 118 114 111 113 111 99 85 77 73 62 28 13 11 11 16 14 24 21 15 15 25 16 17 21 5 6 10 355 354 357 356 360 3 283 199
158 153 144 134 127 125 124 122 122 120 122 119 110 100 86 76 69 50 27 28 28 18 22 32 34 26 19 17 19 7 12 13 356 348 355 344 354 353 348 353 342 316 250
154 147 141 141 143 140 135 129 128 128 122 114 106 94 82 78 70 51 37 37 37 30 29 38 31 18 14 16 15 17 16 10 355 349 347 335 348 339 333 332 327 315 314
164 159 156 157 155 151 145 138 132 130 125 114 107 100 92 90 78 59 48 42 44 42 32 29 22 16 18 19 14 19 24 12 358 352 346 338 336 323 322 327 316 314 317
173 172 168 167 162 155 149 143 137 132 127 118 113 117 108 90 74 60 48 45 45 42 34 32 20 12 17 19 17 12 25 8 352 347 342 337 340 342 337 332 315 319 311
182 178 173 170 169 166 159 150 145 143 131 123 124 117 100 83 69 56 49 47 37 29 35 31 23 17 12 10 21 29 29 3 351 339 331 326 331 337 336 326 319 312 298
181 180 179 178 175 172 163 159 156 143 132 129 124 116 108 94 74 68 62 49 34 35 32 19 18 6 351 8 17 22 37 360 333 325 324 331 333 333 317 321 323 308 297
181 181 177 173 169 162 155 148 142 140 136 134 132 129 122 111 93 81 70 48 43 39 26 10 1 356 354 6 9 11 23 355 331 318 309 306 311 319 322 318 318 307 299
179 175 171 165 159 157 153 142 140 140 139 146 150 150 142 132 118 106 92 70 61 29 7 348 351 347 335 352 357 2 357 344 328 321 321 318 309 318 327 320 308 306 303
163 159 153 148 155 158 150 145 149 150 160 169 168 161 155 149 152 162 164 150 117 341 344 346 336 330 321 339 351 356 349 331 321 319 317 322 322 322 326 314 300 300 299
158 154 152 158 164 158 151 151 156 171 176 164 154 153 159 164 167 159 155 149 107 17 353 336 323 317 313 326 341 346 346 312 308 311 310 310 320 320 320 315 296 294 302
153 155 157 159 158 158 155 157 173 177 159 150 150 157 165 168 150 143 143 135 120 30 332 327 323 316 315 321 328 337 335 329 301 296 295 299 315 317 317 315 308 309 313
160 158 157 155 158 165 163 167 179 164 154 151 160 169 167 168 160 162 174 186 189 225 281 291 301 305 309 315 326 330 331 330 320 296 304 310 314 316 313 310 313 315 307
162 158 154 159 169 175 175 174 166 160 155 162 173 176 176 189 194 192 192 196 218 236 254 265 276 289 300 300 301 304 311 318 318 310 310 314 314 307 301 308 310 303 291
163 163 166 171 175 174 178 175 165 159 162 171 179 184 189 195 210 226 222 220 227 216 222 238 244 260 283 283 289 297 298 299 295 306 306 310 311 313 309 304 299 296 299
162 164 168 170 172 172 179 179 172 166 167 176 188 192 194 199 203 224 275 264 249 263 258 251 250 255 261 281 293 299 301 305 309 314 303 301 298 298 299 300 301 296 293
Height
1542 1544 1545 1548 1550 1552 1553 1555 1555 1556 1556 1557 1557 1557 1557 1556 1555 1554 1553 1552 1550 1549 1547 1545 1544 1542 1540 1539 1537 1535 1534 1532 1531 1531 1530 1530 1530 1530 1529 1529 1529 1530 1530
1542 1543 1545 1548 1550 1552 1553 1555 1556 1557 1557 1558 1558 1558 1557 1557 1556 1555 1554 1553 1552 1550 1549 1547 1546 1544 1542 1540 1539 1537 1535 1534 1533 1532 1532 1532 1533 1531 1531 1530 1530 1530 1530
1541 1543 1545 1547 1549 1551 1553 1555 1556 1557 1558 1558 1558 1558 1558 1558 1557 1556 1555 1554 1553 1552 1550 1549 1547 1546 1544 1542 1540 1539 1537 1536 1535 1534 1534 1533 1533 1533 1533 1532 1531 1531 1531
1541 1543 1545 1547 1549 1551 1553 1555 1556 1558 1558 1559 1559 1559 1559 1558 1558 1557 1556 1555 1554 1553 1552 1550 1549 1547 1546 1544 1542 1541 1539 1538 1537 1536 1536 1536 1535 1534 1534 1533 1533 1532 1532
1540 1542 1544 1546 1549 1551 1553 1555 1556 1557 1558 1559 1559 1559 1559 1559 1558 1557 1557 1556 1555 1554 1552 1551 1550 1549 1547 1546 1544 1543 1541 1540 1539 1538 1537 1537 1536 1536 1535 1534 1533 1533 1533
1540 1542 1544 1546 1548 1550 1552 1554 1556 1557 1558 1559 1559 1559 1559 1559 1558 1558 1557 1556 1555 1554 1553 1552 1551 1550 1548 1547 1546 1544 1543 1542 1540 1539 1539 1538 1537 1537 1536 1535 1534 1533 1533
1539 1541 1543 1546 1548 1550 1552 1554 1555 1557 1558 1559 1559 1559 1559 1559 1559 1558 1557 1557 1556 1555 1554 1553 1552 1550 1549 1548 1547 1546 1544 1543 1542 1541 1540 1539 1538 1538 1537 1536 1534 1533 1533
1538 1541 1543 1545 1547 1549 1551 1553 1555 1556 1558 1558 1559 1559 1559 1559 1559 1558 1558 1557 1556 1555 1554 1553 1552 1551 1550 1549 1547 1546 1545 1544 1543 1542 1541 1540 1539 1538 1537 1537 1535 1534 1533
1538 1540 1543 1545 1547 1549 1551 1553 1555 1556 1557 1558 1559 1559 1559 1559 1558 1558 1558 1557 1556 1555 1554 1553 1552 1551 1550 1549 1548 1547 1546 1544 1544 1543 1542 1541 1540 1539 1538 1537 1536 1536 1533
1537 1540 1542 1544 1547 1549 1551 1553 1554 1556 1557 1558 1558 1558 1559 1558 1558 1558 1557 1556 1556 1555 1554 1553 1552 1551 1550 1549 1548 1547 1546 1545 1544 1543 1542 1541 1540 1539 1538 1537 1536 1535 1534
1535 1538 1541 1544 1546 1548 1550 1552 1553 1555 1556 1557 1557 1558 1558 1558 1557 1557 1557 1556 1555 1555 1554 1553 1552 1551 1549 1548 1547 1546 1545 1544 1544 1543 1542 1540 1539 1538 1537 1536 1535 1534 1533
1534 1537 1540 1543 1545 1547 1549 1551 1553 1554 1555 1556 1557 1557 1557 1557 1557 1556 1556 1555 1555 1554 1553 1552 1551 1550 1549 1548 1547 1546 1545 1544 1543 1542 1541 1540 1539 1537 1536 1535 1534 1533 1532
1533 1536 1539 1541 1544 1546 1548 1550 1552 1553 1554 1555 1556 1556 1556 1556 1556 1555 1555 1554 1554 1553 1552 1551 1550 1549 1548 1547 1546 1545 1544 1543 1542 1541 1540 1538 1537 1536 1535 1533 1532 1531 1530
1531 1534 1537 1540 1542 1545 1547 1549 1551 1552 1553 1554 1555 1555 1555 1555 1555 1554 1554 1553 1553 1552 1551 1550 1549 1548 1547 1546 1545 1544 1543 1542 1541 1539 1538 1537 1536 1534 1533 1532 1530 1529 1527
1528 1531 1534 1537 1540 1543 1545 1547 1549 1551 1552 1553 1553 1554 1554 1554 1554 1553 1553 1552 1552 1551 1550 1549 1548 1547 1546 1544 1543 1542 1541 1540 1539 1538 1536 1535 1534 1533 1531 1530 1528 1526 1525
1524 1528 1531 1535 1538 1540 1543 1546 1548 1550 1551 1552 1552 1553 1553 1553 1553 1552 1552 1551 1550 1550 1549 1547 1546 1545 1544 1543 1542 1541 1539 1538 1537 1535 1534 1533 1531 1530 1529 1527 1526 1524 1522
1519 1523 1527 1531 1535 1538 1541 1544 1546 1548 1549 1550 1551 1551 1552 1552 1551 1551 1551 1550 1549 1548 1547 1546 1545 1544 1543 1541 1540 1539 1537 1536 1534 1533 1531 1530 1528 1527 1525 1523 1522 1521 1519
1515 1520 1524 1528 1532 1536 1539 1542 1544 1546 1547 1548 1549 1550 1550 1550 1550 1550 1549 1548 1548 1547 1546 1545 1544 1542 1541 1540 1538 1537 1535 1533 1532 1530 1528 1526 1524 1523 1521 1519 1517 1516 1515
1511 1516 1521 1525 1529 1533 1537 1539 1542 1543 1545 1546 1547 1548 1548 1548 1548 1548 1547 1547 1546 1545 1544 1543 1542 1541 1539 1538 1536 1534 1532 1531 1529 1527 1525 1523 1521 1519 1517 1515 1512 1510 1509
1509 1514 1519 1523 1527 1531 1534 1537 1539 1541 1542 1544 1545 1546 1546 1546 1546 1546 1546 1545 1544 1543 1542 1541 1540 1538 1537 1535 1533 1531 1529 1527 1526 1524 1522 1520 1517 1515 1513 1510 1508 1505 1502
1506 1511 1516 1520 1524 1528 1531 1534 1536 1538 1540 1542 1542 1543 1544 1544 1544 1544 1543 1543 1542 1541 1540 1539 1537 1536 1534 1532 1531 1529 1526 1524 1522 1520 1517 1515 1513 1511 1508 1506 1503 1500 1497
1503 1508 1512 1517 1521 1525 1528 1531 1533 1536 1538 1539 1540 1541 1541 1541 1542 1541 1541 1540 1539 1538 1537 1536 1535 1533 1532 1530 1528 1526 1524 1521 1519 1516 1513 1511 1508 1506 1503 1501 1498 1495 1492
1500 1504 1509 1514 1518 1522 1525 1528 1530 1533 1535 1536 1537 1538 1539 1539 1539 1539 1538 1537 1537 1535 1534 1533 1531 1530 1528 1527 1525 1522 1520 1517 1515 1512 1509 1507 1504 1501 1498 1495 1493 1489 1486
1497 1501 1506 1510 1514 1518 1522 1525 1528 1530 1531 1533 1534 1535 1535 1536 1536 1535 1535 1534 1533 1532 1531 1529 1527 1526 1524 1523 1520 1518 1516 1513 1510 1507 1504 1502 1499 1496 1493 1490 1487 1484 1481
1494 1499 1503 1507 1511 1515 1518 1522 1524 1526 1528 1529 1530 1531 1532 1532 1532 1532 1532 1531 1530 1529 1527 1526 1524 1522 1520 1518 1517 1514 1511 1508 1505 1502 1499 1496 1492 1489 1486 1483 1480 1477 1474
1492 1496 1500 1504 1508 1512 1515 1518 1520 1522 1524 1525 1526 1527 1528 1528 1528 1528 1528 1527 1527 1525 1524 1522 1521 1518 1517 1514 1512 1510 1507 1504 1501 1497 1493 1490 1487 1483 1480 1477 1474 1471 1468